Regional Weather Roundup
Issued by NWS Jackson, KY

Home | Current Version | Previous Version | Text Only | Print | Product List | Glossary Off
Versions: 1 2 3 4 5 6 7 8 9 10 11 12 13 14 15 16 17 18 19 20 21 22 23 24 25 26 27

000
ASUS43 KJKL 250010
RWRJKL

EAST KENTUCKY HOURLY WEATHER ROUNDUP
NATIONAL WEATHER SERVICE JACKSON KY
800 PM EDT TUE APR 24 2018

NOTE: "FAIR" INDICATES FEW OR NO CLOUDS BELOW 12,000 FEET WITH
NO SIGNIFICANT WEATHER AND/OR OBSTRUCTIONS TO VISIBILITY.

* THESE REPORTS ARE NOT UNDER NWS QUALITY CONTROL AND MAY NOT
  REPORT WEATHER SUCH AS PRECIPITATION AND FOG.

KYZ079-080-083-085-087-088-110-112-115-119-120-250100
...EASTERN KENTUCKY...

CITY           SKY/WX    TMP DP  RH WIND       PRES   REMARKS
JACKSON        LGT RAIN  56  53  90 CALM      29.86S
6HR MIN TEMP:  56; 6HR MAX TEMP:  63; 6HR PCP:  0.03;

LONDON         CLOUDY    58  56  93 W5        29.86S
6HR MIN TEMP:  57; 6HR MAX TEMP:  64; 6HR PCP:  0.08;

SOMERSET*      DRIZZLE   55  55 100 N6        29.89R
MONTICELLO*    LGT RAIN  57  56  96 W7        29.90R
6HR MIN TEMP:  57; 6HR MAX TEMP:  66;

WILLIAMSBURG*  MOCLDY    55  55 100 CALM      29.87R
MIDDLESBORO*   CLOUDY    59  59 100 CALM      29.85S
6HR MIN TEMP:  59; 6HR MAX TEMP:  65; 6HR PCP:  0.05;

HARLAN APT*    CLOUDY    58  57  96 CALM      29.85S
PIKE CO APT*   LGT RAIN  56  56 100 N3        29.86S
BIG SANDY APT* DRIZZLE   56  56 100 CALM      29.86S
6HR MIN TEMP:  56; 6HR MAX TEMP:  62;

MOREHEAD APT*  CLOUDY    57  55  94 CALM      29.88F
ASHLAND*       CLOUDY    55  54  96 CALM      29.88S
$$

KYZ035-036-041-042-044-050-067-078-099-250100
...CENTRAL KENTUCKY...

CITY           SKY/WX    TMP DP  RH WIND       PRES   REMARKS
MT STERLING*   CLOUDY    55  54  94 NW3       29.88F
FLEMING/MASON* CLOUDY    55  55 100 NE5       29.88F
DANVILLE*      CLOUDY    55  54  94 CALM      29.89S
LEXINGTON      CLOUDY    57  53  86 NW3       29.87F
6HR MIN TEMP:  56; 6HR MAX TEMP:  59; 6HR PCP:  0.01;

FRANKFORT      CLOUDY    57  53  86 NW3       29.87S
6HR MIN TEMP:  56; 6HR MAX TEMP:  59; 6HR PCP:  0.01;

LOUISVILLE     CLOUDY    58  54  86 NW7       29.89S
6HR MIN TEMP:  57; 6HR MAX TEMP:  59; 6HR PCP:  0.02;

LEBANON*       CLOUDY    55  54  94 CALM      29.89S FOG
GLASGOW*       CLOUDY    56  54  93 CALM      29.91R
BOWLING GREEN  CLOUDY    58  55  90 NW6       29.92R
6HR MIN TEMP:  58; 6HR MAX TEMP:  62; 6HR PCP: TRACE;

$$

KYZ091>093-OHZ055-061-077-WVZ005-015-034-035-042-250100
...SOUTHERN OHIO/WEST VIRGINIA...

CITY           SKY/WX    TMP DP  RH WIND       PRES   REMARKS
COVINGTON      CLOUDY    55  55 100 N8        29.88F FOG
COLUMBUS       DRIZZLE   54  52  93 E7        29.90S FOG
DAYTON         FOG       53  53 100 N6        29.91F VSB 1
WILMINGTON     CLOUDY    53  53 100 NE3       29.89S FOG
HUNTINGTON     CLOUDY    56  54  93 N3        29.86F
CHARLESTON     CLOUDY    57  54  89 NE5       29.87S
PINEVILLE*     CLOUDY    56  54  95 MISG      29.90F
BECKLEY        CLOUDY    54  49  83 SE10      29.87S
BLUEFIELD      LGT RAIN  52  49  89 NE6       29.87F
LOGAN CO APT*  LGT RAIN  55  55 100 CALM      29.86S
$$

VAZ002-007-008-TNZ017-027-036-066-071-250100
...SOUTHWEST VIRGINIA/EAST TENNESSEE...

CITY           SKY/WX    TMP DP  RH WIND       PRES   REMARKS
WISE*          LGT RAIN  54  54 100 CALM      29.87F
JONESVILLE*    LGT RAIN  59  59 100 CALM      29.87R
ABINGDON*      CLOUDY    57  57  98 CALM      29.84S
BRISTOL        LGT RAIN  57  57 100 CALM      29.84S
MORRISTOWN*    CLOUDY    59  59 100 CALM      29.84R
SEVIERVILLE*   CLOUDY    59  55  88 CALM      29.84S
KNOXVILLE      CLOUDY    61  56  83 W8        29.84R
LAFOLLETTE*    MOCLDY    59  55  88 CALM      29.88S
OAK RIDGE      MOCLDY    60  58  92 VRB3      29.86R
CROSSVILLE     CLOUDY    56  53  90 W7        29.89S
NASHVILLE      MOCLDY    62  54  74 N14       29.91R
$$

...KEY TO REMARKS...
VSB - VISIBILITY IN MILES
WCI - WIND CHILL INDEX
HX  - HEAT INDEX

$$




USA.gov is the U.S. government's official web portal to all federal, state and local government web resources and services.